Weather Roundup
Issued by NWS Chicago, IL

Home | Current Version | Previous Version | Text Only | Print | Product List | Glossary On
Versions: 1 2 3 4 5 6 7 8 9 10 11 12 13 14 15 16 17 18 19 20 21 22 23 24 25 26 27 28 29 30 31 32 33 34 35 36 37 38 39 40 41 42 43 44 45 46 47 48 49 50
000
NZUS59 KLOT 040521
HRRLOT

CHICAGO AREA WEATHER ROUNDUP
NATIONAL WEATHER SERVICE CHICAGO/ROMEOVILLE IL
1200 AM CDT SAT JUL 04 2015

NOTE: "FAIR" INDICATES FEW OR NO CLOUDS BELOW 12,000 FEET WITH NO
SIGNIFICANT WEATHER AND/OR OBSTRUCTIONS TO VISIBILITY.

* THESE STATIONS ARE NOT UNDER NWS QUALITY CONTROL. THEY ALSO MAY NOT
  REPORT WEATHER SUCH AS PRECIPITATION OR FOG.

ILZ005-006-012>014-019>023-040600-
NORTHEAST ILLINOIS

CITY           SKY/WX    TMP DP  RH WIND       PRES   REMARKS
OHARE          PTCLDY    64  54  69 CALM      29.95R
MIDWAY         MOCLDY    67  55  65 CALM      29.95R
AURORA         CLEAR     61  55  81 CALM      29.96R
LANSING*       CLEAR     60  54  81 CALM      29.96S
JOLIET*        CLEAR     60  58  94 CALM      29.96S FOG
WAUKEGAN       CLEAR     55  53  93 CALM      29.95R
DUPAGE AIRPORT CLEAR     62  54  74 CALM      29.95R
WHEELING       CLEAR     61  54  77 CALM      29.97R
KANKAKEE*      CLEAR     62  59  89 CALM      29.96R
MORRIS*        CLEAR     65  56  74 CALM      29.94R
LEWIS AIRPORT* CLEAR     61  54  76 CALM      29.96S
NORTHERLY IS     N/A     64  54  69 CALM        N/A
$$

WIZ051-052-058>065-066-070>072-040600-
SOUTHEAST WISCONSIN

CITY           SKY/WX    TMP DP  RH WIND       PRES   REMARKS
MILWAUKEE      MOCLDY    63  52  67 S3        29.95R
KENOSHA*       CLEAR     57  53  86 CALM      29.96R
RACINE*        CLEAR     59  52  77 CALM      29.97R
BURLINGTON     CLEAR     54  53  97 CALM      29.96R
WAUKESHA       CLEAR     61  52  72 S6        29.96S
WEST BEND      CLEAR     57  52  82 CALM      29.95S
$$

INZ001>003-010>013-019-020-040600-
NORTHWEST INDIANA

CITY           SKY/WX    TMP DP  RH WIND       PRES   REMARKS
GARY*          CLEAR    N/A N/A N/A CALM      29.95S FOG
MICHIGAN CITY* NOT AVBL
RENSSELAER*    NOT AVBL
VALPARAISO     CLEAR     57  54  89 CALM      29.96R
$$

LMZ740>746-040600-
SOUTHERN LAKE MICHIGAN

STATION/POSITION TIME  SKY/WX   TEMP WIND        PRES    VSBY
                                AIR  DIR/SP/G
                 (UTC)          (F)  (DEG/KT/KT) (MB)    (MI)
HARRISON CRIB    0500            65  190/  5/  5   N/A
BURNHAM HARBOR   0500            64   CALM  /  2   N/A
CALUMET HARBOR   0400            64  190/  1/  2   N/A
BURNS HARBOR     0400            65  200/  1/  2 1014.6S
MICHIGAN CITY    0500            61   80/  2/  3   N/A
$$

ABBREVIATIONS USED IN REMARKS
   TC - TEMPERATURE IN CELSIUS
  WCI - WIND CHILL INDEX
   HX - HEAT INDEX
  VSB - VISIBILITY
$$


USA.gov is the U.S. government's official web portal to all federal, state and local government web resources and services.